Regional Weather Roundup
Issued by NWS

Home | Current Version | Previous Version | Graphics & Text | Print | Product List | Glossary Off
Versions: 1 2 3 4 5 6 7 8 9 10 11 12 13 14 15 16 17 18 19 20 21 22 23 24 25 26 27 28 29 30 31 32 33 34 35 36 37 38 39 40 41 42 43 44 45 46 47 48 49 50

000
ASUS43 KFSD 042102
RWRSD

WEATHER ROUNDUP FOR SOUTH DAKOTA
NATIONAL WEATHER SERVICE SIOUX FALLS SD
400 PM CDT TUE AUG 04 2015

NOTE: "FAIR" INDICATES FEW OR NO CLOUDS BELOW 12,000 FEET WITH NO
SIGNIFICANT WEATHER AND/OR OBSTRUCTIONS TO VISIBILITY.


SDZ001>005-009-010-012>017-042200-
NORTHWEST AND NORTH CENTRAL SOUTH DAKOTA

CITY           SKY/WX    TMP DP  RH WIND       PRES   REMARKS
FAITH            N/A     83  53  35 SE14      29.95S
MOBRIDGE       PTSUNNY   86  62  44 S14       29.93F
$$

SDZ012>016-024>037-041>051-057-063-072>074-042200-
SOUTHWEST AND SOUTH CENTRAL SOUTH DAKOTA

CITY           SKY/WX    TMP DP  RH WIND       PRES   REMARKS
RAPID CTY ARPT PTSUNNY   84  62  47 SE15      29.95F
PIERRE         PTSUNNY   83  61  47 SE14      29.93F
CUSTER         MOSUNNY   76  56  49 SE10      30.08F
ELLSWORTH AFB  CLOUDY    84  60  43 S15G22    29.94F
PHILIP         MOSUNNY   84  61  45 E12       29.93S
PINE RIDGE     PTSUNNY   78  60  53 S14G23    29.98F
WINNER         FAIR      84  62  47 E13       29.95F
$$

SDZ004>011-016>023-039-040-042200-
NORTHEAST SOUTH DAKOTA

CITY           SKY/WX    TMP DP  RH WIND       PRES   REMARKS
ABERDEEN       MOSUNNY   82  56  40 SE8       29.97F
WATERTOWN      PTSUNNY   80  54  40 SE8       30.00S
BROOKINGS      PTSUNNY   77  61  57 E9        30.02S
$$

SDZ017-020-022-023-036>040-048>070-042200-
SOUTHEAST SOUTH DAKOTA

CITY           SKY/WX    TMP DP  RH WIND       PRES   REMARKS
SIOUX FALLS    CLOUDY    77  62  59 E9        30.00R
HURON          PTSUNNY   80  62  54 SE7       29.97S
MITCHELL       PTSUNNY   81  66  60 SE12      29.98S
YANKTON        MOSUNNY   79  64  61 SE10      29.96S
$$

ABBREVIATIONS USED IN REMARKS
   TC - TEMPERATURE IN CELSIUS
  WCI - WIND CHILL INDEX
   HX - HEAT INDEX
  VSB - VISIBILITY



USA.gov is the U.S. government's official web portal to all federal, state and local government web resources and services.